QPF
0.03 0.01 0.01 0.01 0.01 0.01 0.01 0.00 0.00 0.00 0.00 0.00 0.00 0.00 0.00 0.00 0.00 0.00 0.00 0.00 0.00 0.00 0.00 0.00 0.00 0.00 0.00 0.00 0.00 0.00 0.00 0.00 0.00 0.00 0.00 0.00 0.00 0.00 0.00 0.00 0.00 0.00 0.00
0.07 0.04 0.02 0.02 0.02 0.02 0.01 0.01 0.01 0.01 0.01 0.01 0.01 0.00 0.00 0.00 0.00 0.00 0.00 0.00 0.00 0.00 0.00 0.00 0.00 0.00 0.00 0.00 0.00 0.00 0.00 0.00 0.00 0.00 0.00 0.00 0.00 0.00 0.00 0.00 0.00 0.00 0.00
0.12 0.13 0.09 0.05 0.03 0.02 0.02 0.02 0.02 0.02 0.02 0.01 0.01 0.01 0.01 0.00 0.00 0.00 0.00 0.00 0.00 0.00 0.00 0.00 0.00 0.00 0.00 0.00 0.00 0.00 0.00 0.00 0.00 0.00 0.00 0.00 0.00 0.00 0.00 0.00 0.00 0.00 0.00
0.13 0.12 0.11 0.09 0.08 0.09 0.07 0.05 0.03 0.03 0.03 0.03 0.03 0.03 0.02 0.02 0.01 0.02 0.02 0.01 0.00 0.00 0.00 0.00 0.00 0.00 0.00 0.00 0.00 0.00 0.00 0.00 0.00 0.00 0.00 0.00 0.00 0.00 0.00 0.00 0.00 0.00 0.00
0.16 0.14 0.09 0.05 0.05 0.07 0.07 0.05 0.05 0.05 0.06 0.06 0.06 0.05 0.05 0.05 0.05 0.04 0.03 0.02 0.01 0.01 0.00 0.00 0.00 0.00 0.00 0.00 0.00 0.00 0.00 0.00 0.00 0.00 0.00 0.00 0.00 0.00 0.00 0.00 0.00 0.00 0.00
0.10 0.11 0.12 0.12 0.13 0.14 0.15 0.12 0.09 0.09 0.09 0.09 0.09 0.08 0.09 0.10 0.08 0.06 0.05 0.04 0.03 0.02 0.01 0.01 0.00 0.00 0.00 0.00 0.00 0.00 0.00 0.00 0.00 0.00 0.00 0.00 0.00 0.00 0.00 0.00 0.00 0.00 0.00
0.12 0.11 0.14 0.19 0.23 0.30 0.32 0.25 0.20 0.16 0.14 0.13 0.11 0.10 0.11 0.13 0.14 0.12 0.09 0.07 0.04 0.02 0.01 0.01 0.01 0.00 0.01 0.01 0.01 0.01 0.01 0.01 0.01 0.01 0.01 0.00 0.00 0.00 0.01 0.01 0.01 0.00 0.00
0.11 0.11 0.13 0.18 0.21 0.23 0.23 0.22 0.24 0.26 0.24 0.21 0.19 0.16 0.14 0.15 0.15 0.12 0.09 0.06 0.04 0.03 0.02 0.01 0.01 0.01 0.01 0.01 0.01 0.01 0.01 0.01 0.01 0.02 0.01 0.01 0.01 0.01 0.01 0.01 0.01 0.00 0.00
0.16 0.20 0.23 0.24 0.29 0.28 0.24 0.22 0.24 0.28 0.29 0.31 0.34 0.31 0.24 0.19 0.16 0.12 0.09 0.07 0.07 0.07 0.04 0.03 0.02 0.01 0.01 0.01 0.01 0.01 0.01 0.01 0.01 0.02 0.02 0.01 0.01 0.01 0.02 0.02 0.01 0.01 0.01
0.25 0.26 0.29 0.30 0.32 0.34 0.31 0.29 0.29 0.30 0.32 0.31 0.27 0.22 0.17 0.13 0.12 0.10 0.10 0.08 0.06 0.05 0.04 0.03 0.02 0.02 0.02 0.02 0.02 0.02 0.02 0.02 0.03 0.03 0.02 0.02 0.01 0.01 0.01 0.02 0.02 0.02 0.01
0.19 0.20 0.21 0.22 0.25 0.27 0.33 0.35 0.31 0.30 0.29 0.26 0.23 0.20 0.19 0.18 0.16 0.13 0.12 0.10 0.07 0.05 0.03 0.03 0.03 0.03 0.03 0.02 0.02 0.02 0.02 0.02 0.01 0.01 0.01 0.01 0.01 0.00 0.00 0.01 0.01 0.01 0.01
0.21 0.23 0.24 0.25 0.25 0.26 0.29 0.29 0.25 0.21 0.19 0.19 0.21 0.20 0.20 0.20 0.18 0.17 0.16 0.15 0.13 0.09 0.07 0.06 0.05 0.05 0.04 0.02 0.02 0.01 0.01 0.01 0.00 0.00 0.00 0.00 0.00 0.00 0.00 0.00 0.01 0.01 0.01
0.15 0.19 0.26 0.29 0.24 0.19 0.21 0.20 0.18 0.17 0.17 0.17 0.17 0.18 0.18 0.16 0.15 0.17 0.18 0.18 0.17 0.14 0.11 0.09 0.07 0.05 0.03 0.02 0.02 0.02 0.01 0.01 0.01 0.00 0.00 0.00 0.00 0.00 0.00 0.01 0.01 0.02 0.03
0.05 0.06 0.13 0.21 0.18 0.12 0.10 0.10 0.11 0.13 0.14 0.15 0.15 0.14 0.13 0.13 0.14 0.13 0.13 0.13 0.11 0.10 0.08 0.07 0.07 0.06 0.04 0.03 0.02 0.01 0.01 0.01 0.01 0.01 0.00 0.00 0.00 0.01 0.01 0.01 0.02 0.03 0.04
0.05 0.05 0.08 0.11 0.11 0.10 0.10 0.08 0.07 0.06 0.06 0.06 0.07 0.07 0.06 0.07 0.06 0.06 0.06 0.06 0.05 0.05 0.04 0.04 0.03 0.03 0.03 0.02 0.02 0.02 0.02 0.02 0.02 0.01 0.01 0.01 0.01 0.02 0.02 0.03 0.04 0.05 0.05
0.03 0.04 0.05 0.06 0.07 0.06 0.05 0.04 0.04 0.04 0.04 0.03 0.03 0.03 0.02 0.02 0.02 0.01 0.01 0.01 0.01 0.01 0.01 0.01 0.01 0.01 0.02 0.02 0.02 0.01 0.01 0.01 0.02 0.02 0.02 0.03 0.03 0.03 0.03 0.04 0.05 0.06 0.05
0.01 0.02 0.03 0.03 0.02 0.02 0.02 0.02 0.01 0.01 0.01 0.01 0.01 0.01 0.00 0.00 0.00 0.00 0.00 0.00 0.00 0.00 0.00 0.00 0.00 0.00 0.01 0.01 0.01 0.01 0.01 0.02 0.02 0.03 0.03 0.03 0.03 0.04 0.04 0.04 0.05 0.05 0.04
0.00 0.01 0.01 0.01 0.01 0.02 0.02 0.02 0.01 0.01 0.00 0.00 0.00 0.00 0.00 0.00 0.00 0.00 0.00 0.00 0.00 0.00 0.00 0.00 0.00 0.00 0.00 0.01 0.01 0.01 0.01 0.02 0.02 0.03 0.03 0.04 0.05 0.05 0.06 0.05 0.05 0.04 0.04
0.00 0.00 0.00 0.00 0.00 0.00 0.00 0.00 0.00 0.00 0.00 0.00 0.00 0.00 0.00 0.00 0.00 0.00 0.00 0.00 0.00 0.00 0.00 0.00 0.00 0.00 0.01 0.01 0.01 0.01 0.01 0.01 0.01 0.02 0.02 0.02 0.02 0.03 0.04 0.05 0.05 0.05 0.05
0.00 0.00 0.00 0.00 0.00 0.00 0.00 0.00 0.00 0.00 0.00 0.00 0.00 0.00 0.00 0.00 0.00 0.00 0.00 0.00 0.00 0.00 0.00 0.00 0.00 0.01 0.01 0.02 0.02 0.02 0.02 0.02 0.02 0.02 0.02 0.02 0.02 0.03 0.04 0.05 0.06 0.06 0.06
0.00 0.00 0.00 0.00 0.00 0.00 0.00 0.00 0.00 0.00 0.00 0.00 0.00 0.00 0.00 0.00 0.00 0.00 0.00 0.00 0.01 0.01 0.01 0.01 0.01 0.01 0.01 0.01 0.02 0.02 0.02 0.03 0.03 0.03 0.04 0.04 0.05 0.06 0.06 0.07 0.07 0.07 0.07
0.00 0.00 0.00 0.00 0.00 0.00 0.00 0.00 0.00 0.00 0.00 0.00 0.00 0.00 0.00 0.00 0.00 0.00 0.00 0.01 0.01 0.01 0.02 0.02 0.02 0.02 0.01 0.02 0.02 0.02 0.02 0.02 0.02 0.03 0.04 0.04 0.04 0.05 0.05 0.05 0.06 0.06 0.07
0.00 0.00 0.00 0.00 0.00 0.00 0.00 0.00 0.00 0.00 0.00 0.00 0.00 0.00 0.00 0.00 0.00 0.00 0.00 0.01 0.01 0.01 0.01 0.01 0.01 0.01 0.01 0.02 0.02 0.02 0.02 0.02 0.02 0.02 0.03 0.03 0.03 0.04 0.05 0.06 0.07 0.09 0.09
0.00 0.00 0.00 0.00 0.00 0.00 0.00 0.00 0.00 0.00 0.00 0.01 0.01 0.01 0.01 0.01 0.01 0.01 0.01 0.01 0.01 0.01 0.01 0.01 0.01 0.01 0.01 0.01 0.01 0.01 0.01 0.01 0.02 0.02 0.03 0.03 0.03 0.04 0.05 0.06 0.08 0.09 0.11
0.00 0.00 0.00 0.00 0.00 0.00 0.00 0.00 0.00 0.01 0.01 0.01 0.01 0.01 0.01 0.01 0.01 0.01 0.01 0.01 0.01 0.01 0.01 0.01 0.01 0.01 0.01 0.01 0.01 0.01 0.01 0.01 0.01 0.02 0.01 0.02 0.02 0.03 0.04 0.05 0.07 0.07 0.07
0.00 0.01 0.00 0.00 0.01 0.00 0.00 0.01 0.01 0.01 0.01 0.01 0.01 0.01 0.01 0.01 0.01 0.01 0.01 0.01 0.02 0.02 0.02 0.01 0.01 0.01 0.01 0.01 0.01 0.01 0.01 0.02 0.02 0.02 0.02 0.01 0.02 0.02 0.03 0.03 0.03 0.04 0.05
MSLP
1012.49 1012.73 1013.00 1013.27 1013.51 1013.71 1013.88 1014.04 1014.22 1014.44 1014.72 1015.06 1015.44 1015.84 1016.23 1016.59 1016.91 1017.18 1017.42 1017.66 1017.90 1018.16 1018.45 1018.77 1019.09 1019.41 1019.69 1019.92 1020.10 1020.21 1020.26 1020.25 1020.20 1020.09 1019.92 1019.70 1019.42 1019.09 1018.71 1018.31 1017.91 1017.54 1017.24
1012.13 1012.33 1012.56 1012.79 1013.00 1013.19 1013.37 1013.55 1013.76 1014.01 1014.30 1014.65 1015.03 1015.43 1015.82 1016.18 1016.51 1016.80 1017.06 1017.30 1017.55 1017.81 1018.09 1018.37 1018.66 1018.94 1019.20 1019.42 1019.61 1019.76 1019.88 1019.95 1019.99 1019.97 1019.89 1019.74 1019.50 1019.18 1018.80 1018.37 1017.93 1017.51 1017.15
1011.70 1011.89 1012.10 1012.30 1012.49 1012.66 1012.84 1013.02 1013.24 1013.50 1013.82 1014.19 1014.59 1015.00 1015.40 1015.78 1016.12 1016.43 1016.71 1016.96 1017.21 1017.45 1017.70 1017.95 1018.20 1018.43 1018.66 1018.87 1019.06 1019.24 1019.40 1019.55 1019.66 1019.73 1019.73 1019.65 1019.47 1019.19 1018.83 1018.41 1017.96 1017.52 1017.13
1011.25 1011.46 1011.67 1011.85 1012.01 1012.15 1012.30 1012.48 1012.70 1012.97 1013.31 1013.69 1014.12 1014.55 1014.98 1015.39 1015.75 1016.08 1016.37 1016.63 1016.86 1017.09 1017.30 1017.51 1017.70 1017.90 1018.08 1018.27 1018.45 1018.64 1018.84 1019.03 1019.20 1019.33 1019.41 1019.39 1019.28 1019.07 1018.76 1018.38 1017.95 1017.52 1017.13
1010.85 1011.10 1011.31 1011.47 1011.59 1011.70 1011.82 1011.97 1012.18 1012.46 1012.80 1013.21 1013.67 1014.13 1014.59 1015.02 1015.41 1015.75 1016.04 1016.29 1016.51 1016.70 1016.88 1017.04 1017.19 1017.34 1017.48 1017.64 1017.80 1017.99 1018.19 1018.40 1018.60 1018.77 1018.90 1018.94 1018.90 1018.75 1018.51 1018.20 1017.83 1017.45 1017.08
1010.61 1010.88 1011.09 1011.22 1011.31 1011.37 1011.45 1011.57 1011.75 1012.02 1012.38 1012.80 1013.28 1013.77 1014.25 1014.70 1015.10 1015.44 1015.73 1015.96 1016.15 1016.31 1016.44 1016.56 1016.67 1016.77 1016.88 1017.00 1017.13 1017.29 1017.48 1017.68 1017.88 1018.06 1018.21 1018.29 1018.30 1018.21 1018.05 1017.81 1017.52 1017.21 1016.89
1010.58 1010.86 1011.06 1011.16 1011.20 1011.22 1011.24 1011.32 1011.48 1011.73 1012.08 1012.51 1013.00 1013.50 1013.99 1014.44 1014.84 1015.17 1015.43 1015.64 1015.79 1015.92 1016.01 1016.09 1016.16 1016.23 1016.30 1016.38 1016.48 1016.60 1016.74 1016.90 1017.07 1017.23 1017.36 1017.45 1017.49 1017.45 1017.35 1017.19 1016.99 1016.75 1016.50
1010.79 1011.07 1011.24 1011.30 1011.30 1011.26 1011.24 1011.27 1011.40 1011.63 1011.96 1012.38 1012.86 1013.35 1013.83 1014.26 1014.63 1014.94 1015.17 1015.34 1015.47 1015.55 1015.62 1015.67 1015.71 1015.75 1015.80 1015.84 1015.90 1015.96 1016.05 1016.14 1016.24 1016.34 1016.43 1016.49 1016.52 1016.51 1016.45 1016.35 1016.22 1016.05 1015.86
1011.23 1011.48 1011.61 1011.63 1011.58 1011.49 1011.43 1011.42 1011.51 1011.71 1012.01 1012.40 1012.85 1013.31 1013.76 1014.16 1014.50 1014.76 1014.96 1015.10 1015.19 1015.26 1015.30 1015.34 1015.37 1015.39 1015.41 1015.42 1015.43 1015.44 1015.45 1015.46 1015.48 1015.49 1015.51 1015.51 1015.50 1015.47 1015.42 1015.35 1015.25 1015.14 1015.01
1011.82 1012.02 1012.11 1012.09 1012.00 1011.88 1011.77 1011.73 1011.78 1011.94 1012.21 1012.55 1012.96 1013.37 1013.77 1014.13 1014.42 1014.65 1014.81 1014.92 1015.00 1015.05 1015.09 1015.13 1015.15 1015.17 1015.17 1015.16 1015.13 1015.07 1015.00 1014.92 1014.84 1014.75 1014.66 1014.58 1014.50 1014.43 1014.35 1014.27 1014.19 1014.10 1013.99
1012.47 1012.62 1012.67 1012.61 1012.49 1012.33 1012.20 1012.13 1012.15 1012.26 1012.48 1012.78 1013.12 1013.49 1013.83 1014.14 1014.39 1014.58 1014.72 1014.82 1014.89 1014.94 1014.99 1015.04 1015.07 1015.09 1015.08 1015.05 1014.97 1014.86 1014.71 1014.54 1014.35 1014.16 1013.96 1013.78 1013.61 1013.46 1013.33 1013.21 1013.10 1013.00 1012.89
1013.09 1013.19 1013.20 1013.11 1012.96 1012.79 1012.64 1012.54 1012.52 1012.60 1012.77 1013.01 1013.30 1013.61 1013.90 1014.16 1014.38 1014.55 1014.68 1014.78 1014.86 1014.93 1014.99 1015.05 1015.09 1015.12 1015.10 1015.04 1014.92 1014.76 1014.54 1014.28 1014.00 1013.70 1013.40 1013.12 1012.86 1012.62 1012.42 1012.24 1012.07 1011.93 1011.79
1013.60 1013.66 1013.63 1013.52 1013.36 1013.17 1013.01 1012.90 1012.86 1012.90 1013.02 1013.21 1013.45 1013.70 1013.95 1014.18 1014.37 1014.54 1014.67 1014.78 1014.88 1014.97 1015.05 1015.12 1015.17 1015.19 1015.16 1015.07 1014.91 1014.69 1014.41 1014.08 1013.72 1013.33 1012.95 1012.57 1012.22 1011.90 1011.62 1011.36 1011.13 1010.92 1010.73
1013.99 1014.00 1013.94 1013.81 1013.64 1013.46 1013.29 1013.16 1013.10 1013.12 1013.20 1013.35 1013.54 1013.76 1013.98 1014.18 1014.37 1014.54 1014.68 1014.81 1014.93 1015.03 1015.13 1015.20 1015.24 1015.24 1015.18 1015.06 1014.86 1014.59 1014.25 1013.86 1013.43 1012.98 1012.52 1012.08 1011.65 1011.26 1010.90 1010.57 1010.27 1009.99 1009.73
1014.24 1014.21 1014.13 1013.99 1013.82 1013.64 1013.47 1013.34 1013.27 1013.27 1013.33 1013.44 1013.60 1013.79 1013.99 1014.19 1014.38 1014.55 1014.71 1014.86 1014.98 1015.09 1015.18 1015.24 1015.25 1015.21 1015.11 1014.93 1014.68 1014.36 1013.97 1013.53 1013.05 1012.56 1012.05 1011.56 1011.08 1010.63 1010.20 1009.80 1009.43 1009.09 1008.76
1014.39 1014.33 1014.23 1014.08 1013.92 1013.75 1013.59 1013.48 1013.41 1013.39 1013.44 1013.54 1013.68 1013.85 1014.04 1014.24 1014.43 1014.61 1014.77 1014.92 1015.04 1015.13 1015.19 1015.20 1015.16 1015.07 1014.90 1014.66 1014.35 1013.97 1013.54 1013.06 1012.55 1012.02 1011.49 1010.96 1010.44 1009.94 1009.47 1009.01 1008.58 1008.17 1007.78
1014.50 1014.42 1014.30 1014.16 1014.01 1013.86 1013.73 1013.63 1013.57 1013.57 1013.61 1013.70 1013.83 1014.00 1014.18 1014.36 1014.55 1014.72 1014.87 1015.00 1015.09 1015.14 1015.15 1015.10 1014.99 1014.81 1014.57 1014.26 1013.89 1013.45 1012.98 1012.46 1011.93 1011.38 1010.82 1010.27 1009.72 1009.18 1008.66 1008.16 1007.67 1007.20 1006.76
1014.62 1014.52 1014.40 1014.27 1014.15 1014.03 1013.94 1013.87 1013.85 1013.86 1013.91 1014.00 1014.12 1014.27 1014.43 1014.60 1014.76 1014.91 1015.03 1015.11 1015.15 1015.14 1015.07 1014.94 1014.75 1014.49 1014.17 1013.79 1013.35 1012.87 1012.35 1011.81 1011.25 1010.67 1010.10 1009.52 1008.94 1008.37 1007.81 1007.25 1006.70 1006.18 1005.68
1014.79 1014.68 1014.58 1014.48 1014.40 1014.33 1014.28 1014.26 1014.27 1014.30 1014.37 1014.45 1014.57 1014.69 1014.83 1014.96 1015.08 1015.17 1015.23 1015.25 1015.22 1015.13 1014.98 1014.77 1014.49 1014.15 1013.75 1013.31 1012.82 1012.29 1011.75 1011.18 1010.60 1010.00 1009.40 1008.79 1008.18 1007.56 1006.94 1006.32 1005.72 1005.13 1004.57
1015.02 1014.93 1014.86 1014.81 1014.78 1014.78 1014.78 1014.81 1014.86 1014.91 1014.99 1015.07 1015.15 1015.25 1015.33 1015.41 1015.46 1015.49 1015.47 1015.41 1015.30 1015.12 1014.89 1014.59 1014.24 1013.83 1013.38 1012.89 1012.36 1011.81 1011.25 1010.66 1010.06 1009.44 1008.81 1008.16 1007.50 1006.82 1006.14 1005.45 1004.78 1004.13 1003.51
1015.32 1015.28 1015.26 1015.27 1015.30 1015.36 1015.43 1015.50 1015.58 1015.65 1015.72 1015.78 1015.84 1015.87 1015.89 1015.89 1015.87 1015.80 1015.70 1015.55 1015.35 1015.09 1014.79 1014.42 1014.02 1013.57 1013.08 1012.57 1012.03 1011.47 1010.90 1010.31 1009.69 1009.05 1008.39 1007.69 1006.97 1006.23 1005.47 1004.71 1003.96 1003.24 1002.56
1015.71 1015.71 1015.76 1015.83 1015.93 1016.05 1016.16 1016.27 1016.37 1016.45 1016.50 1016.52 1016.52 1016.49 1016.44 1016.35 1016.23 1016.07 1015.88 1015.64 1015.36 1015.03 1014.66 1014.26 1013.82 1013.35 1012.85 1012.34 1011.81 1011.27 1010.70 1010.11 1009.49 1008.84 1008.14 1007.40 1006.62 1005.81 1004.98 1004.14 1003.32 1002.53 1001.79
1016.16 1016.23 1016.34 1016.47 1016.62 1016.78 1016.93 1017.05 1017.15 1017.20 1017.22 1017.20 1017.13 1017.02 1016.88 1016.70 1016.49 1016.24 1015.96 1015.64 1015.29 1014.91 1014.51 1014.07 1013.62 1013.16 1012.68 1012.18 1011.68 1011.16 1010.62 1010.04 1009.43 1008.76 1008.04 1007.27 1006.44 1005.57 1004.67 1003.77 1002.88 1002.03 1001.24
1016.67 1016.80 1016.96 1017.14 1017.32 1017.49 1017.64 1017.75 1017.82 1017.84 1017.81 1017.72 1017.58 1017.40 1017.17 1016.91 1016.62 1016.29 1015.94 1015.56 1015.17 1014.75 1014.32 1013.87 1013.42 1012.97 1012.51 1012.05 1011.58 1011.09 1010.57 1010.01 1009.41 1008.74 1008.01 1007.21 1006.35 1005.44 1004.50 1003.55 1002.62 1001.73 1000.91
1017.23 1017.40 1017.59 1017.78 1017.96 1018.12 1018.24 1018.32 1018.34 1018.31 1018.21 1018.06 1017.85 1017.60 1017.31 1016.99 1016.63 1016.25 1015.85 1015.44 1015.01 1014.56 1014.12 1013.67 1013.22 1012.78 1012.34 1011.90 1011.45 1010.99 1010.49 1009.95 1009.35 1008.69 1007.96 1007.15 1006.28 1005.35 1004.40 1003.43 1002.49 1001.58 1000.76
1017.80 1017.99 1018.18 1018.36 1018.51 1018.63 1018.70 1018.72 1018.68 1018.58 1018.43 1018.22 1017.96 1017.67 1017.34 1016.97 1016.59 1016.18 1015.76 1015.32 1014.87 1014.41 1013.96 1013.50 1013.05 1012.61 1012.17 1011.73 1011.29 1010.82 1010.33 1009.80 1009.21 1008.55 1007.82 1007.03 1006.16 1005.25 1004.31 1003.36 1002.43 1001.54 1000.73
Thickness
5741 5740 5739 5737 5736 5735 5733 5733 5732 5731 5729 5727 5726 5723 5721 5719 5717 5715 5713 5711 5709 5707 5706 5703 5701 5700 5697 5696 5694 5692 5689 5685 5680 5682 5685 5687 5688 5687 5687 5686 5685 5684 5684
5742 5740 5738 5737 5736 5734 5733 5733 5732 5730 5729 5727 5725 5722 5720 5718 5715 5713 5710 5709 5706 5703 5702 5700 5698 5696 5693 5692 5689 5687 5684 5682 5678 5676 5678 5680 5681 5682 5682 5682 5682 5681 5680
5742 5739 5737 5736 5734 5734 5733 5732 5731 5729 5727 5725 5724 5721 5719 5716 5714 5712 5709 5706 5704 5702 5699 5697 5695 5692 5689 5687 5685 5682 5680 5679 5675 5672 5672 5673 5675 5676 5675 5676 5676 5676 5676
5740 5738 5736 5735 5734 5733 5731 5730 5728 5727 5724 5722 5721 5719 5717 5714 5711 5709 5706 5703 5700 5698 5696 5694 5691 5689 5686 5683 5681 5678 5676 5673 5670 5667 5666 5666 5667 5669 5667 5666 5666 5668 5669
5740 5737 5736 5735 5733 5731 5728 5726 5725 5723 5722 5719 5716 5714 5712 5710 5707 5704 5701 5698 5695 5692 5691 5689 5688 5686 5683 5680 5678 5674 5671 5667 5664 5662 5660 5660 5660 5659 5659 5660 5659 5660 5661
5740 5738 5736 5733 5729 5727 5724 5722 5720 5718 5716 5714 5711 5709 5707 5706 5704 5700 5696 5693 5690 5687 5685 5683 5682 5681 5679 5677 5675 5672 5669 5664 5660 5657 5655 5654 5656 5655 5655 5654 5652 5650 5651
5738 5736 5733 5730 5727 5725 5723 5719 5716 5714 5712 5709 5707 5704 5702 5700 5699 5695 5692 5688 5685 5683 5680 5677 5676 5676 5673 5671 5669 5667 5665 5663 5660 5656 5652 5653 5652 5651 5649 5647 5645 5644 5646
5730 5728 5726 5724 5721 5719 5716 5713 5711 5708 5705 5703 5700 5699 5696 5695 5692 5689 5686 5683 5679 5678 5675 5672 5669 5668 5667 5663 5661 5660 5658 5657 5654 5652 5651 5652 5651 5649 5645 5643 5641 5640 5641
5720 5717 5716 5715 5712 5709 5707 5706 5704 5701 5699 5697 5695 5692 5689 5687 5685 5681 5678 5674 5671 5670 5668 5665 5662 5660 5659 5655 5652 5650 5650 5650 5649 5647 5647 5646 5646 5643 5640 5634 5632 5628 5631
5710 5708 5708 5706 5703 5700 5699 5698 5696 5693 5691 5690 5687 5685 5682 5679 5676 5672 5668 5665 5662 5661 5658 5657 5655 5652 5650 5647 5643 5641 5640 5642 5640 5639 5638 5638 5637 5635 5633 5629 5626 5623 5623
5701 5701 5700 5698 5695 5693 5690 5688 5686 5684 5681 5678 5677 5675 5673 5670 5667 5663 5660 5656 5653 5651 5649 5647 5646 5644 5641 5638 5635 5633 5633 5632 5630 5628 5627 5627 5627 5627 5626 5624 5621 5618 5617
5690 5690 5689 5687 5685 5683 5679 5676 5675 5673 5669 5667 5664 5662 5661 5659 5656 5654 5650 5646 5644 5640 5639 5638 5636 5634 5631 5629 5626 5625 5623 5621 5619 5617 5617 5618 5618 5618 5618 5616 5615 5613 5612
5678 5676 5675 5674 5672 5669 5666 5663 5661 5659 5657 5654 5652 5649 5647 5646 5644 5642 5640 5637 5633 5630 5629 5628 5626 5623 5621 5619 5618 5616 5613 5610 5608 5606 5607 5609 5609 5609 5607 5605 5604 5603 5602
5665 5663 5661 5659 5658 5656 5654 5652 5649 5646 5644 5642 5639 5636 5634 5633 5632 5630 5627 5625 5622 5618 5616 5615 5613 5611 5609 5607 5606 5605 5603 5600 5597 5596 5597 5598 5597 5595 5593 5591 5589 5588 5587
5652 5650 5648 5646 5644 5642 5640 5639 5637 5635 5634 5630 5628 5626 5623 5620 5619 5618 5614 5611 5608 5605 5602 5600 5598 5596 5595 5594 5593 5592 5590 5588 5585 5584 5583 5582 5581 5580 5579 5577 5575 5573 5571
5637 5636 5633 5631 5630 5629 5627 5625 5625 5624 5622 5620 5618 5615 5612 5610 5608 5605 5602 5598 5595 5592 5588 5584 5582 5581 5580 5579 5578 5577 5576 5574 5572 5570 5569 5567 5566 5565 5564 5562 5559 5557 5558
5624 5622 5620 5619 5617 5616 5614 5612 5610 5610 5609 5607 5605 5602 5599 5597 5594 5590 5587 5583 5580 5577 5572 5570 5568 5567 5566 5565 5563 5562 5561 5560 5558 5556 5554 5553 5551 5550 5548 5547 5545 5544 5545
5612 5610 5608 5605 5604 5603 5601 5599 5596 5594 5593 5592 5591 5589 5587 5583 5580 5577 5573 5568 5564 5561 5557 5555 5554 5553 5551 5549 5548 5546 5546 5544 5542 5541 5539 5538 5536 5534 5533 5532 5532 5531 5532
5598 5597 5595 5593 5591 5589 5588 5586 5583 5581 5578 5576 5575 5574 5572 5569 5566 5562 5557 5551 5549 5547 5544 5542 5539 5537 5536 5534 5532 5531 5530 5528 5527 5525 5524 5522 5521 5519 5519 5519 5519 5520 5520
5585 5585 5583 5580 5577 5575 5573 5570 5568 5565 5562 5559 5557 5555 5554 5551 5547 5545 5541 5538 5535 5533 5531 5528 5526 5523 5522 5520 5518 5517 5515 5513 5512 5510 5509 5508 5507 5506 5507 5507 5508 5509 5512
5571 5570 5569 5565 5562 5559 5556 5553 5551 5549 5545 5543 5540 5539 5537 5533 5530 5528 5526 5523 5521 5518 5517 5515 5512 5510 5509 5507 5505 5504 5503 5501 5499 5497 5496 5495 5495 5495 5496 5497 5499 5501 5503
5557 5554 5552 5549 5546 5543 5540 5537 5534 5531 5528 5526 5523 5522 5520 5516 5513 5511 5509 5508 5506 5505 5503 5501 5499 5498 5496 5495 5493 5492 5491 5489 5488 5486 5485 5485 5485 5487 5488 5490 5492 5494 5496
5542 5539 5536 5533 5530 5527 5524 5520 5517 5514 5511 5509 5507 5505 5502 5499 5497 5495 5494 5492 5491 5491 5490 5488 5487 5487 5485 5484 5483 5481 5480 5479 5478 5477 5476 5477 5478 5479 5481 5484 5486 5489 5492
5526 5523 5520 5517 5514 5510 5507 5504 5501 5498 5496 5493 5490 5488 5486 5484 5482 5481 5480 5479 5478 5478 5478 5478 5477 5477 5476 5475 5475 5474 5472 5471 5470 5469 5469 5470 5472 5474 5476 5479 5482 5486 5489
5511 5508 5504 5500 5497 5494 5491 5488 5485 5482 5480 5478 5476 5474 5472 5471 5469 5468 5467 5467 5468 5468 5468 5468 5468 5468 5468 5468 5468 5468 5467 5467 5466 5465 5465 5466 5468 5471 5473 5477 5480 5483 5486
5496 5492 5488 5485 5482 5479 5475 5473 5470 5468 5466 5465 5463 5461 5460 5459 5458 5458 5457 5457 5458 5459 5459 5460 5461 5461 5462 5463 5464 5464 5464 5464 5464 5464 5463 5465 5467 5470 5473 5476 5479 5482 5486